AWE538 KLAX-KOAK

Flight info

Callsign AWE538
Flight time N/A
Altitude 36000
Route LADYJ4 COREZ RGOOD EMZOH4
Aircraft A319/M-SDE3FGHIRWY/LB1

Departure

Time 2026-05-05 04:16
Airport Los Angeles International Airport (KLAX)

Arrival

Time N/A
Airport San Francisco Bay Oakland International Airport (KOAK)
Time Latitude Longitude Altitude Speed Heading
2026-05-05 03:48 33.94162 -118.40157 127 ft 0 kts 263°
2026-05-05 04:04 33.94162 -118.40148 126 ft 2 kts 263°
2026-05-05 04:04 33.94164 -118.40130 126 ft 2 kts 263°
2026-05-05 04:04 33.94165 -118.40118 126 ft 2 kts 257°
2026-05-05 04:05 33.94173 -118.40104 126 ft 2 kts 218°
2026-05-05 04:05 33.94187 -118.40096 126 ft 2 kts 184°
2026-05-05 04:05 33.94194 -118.40096 126 ft 1 kts 168°
2026-05-05 04:05 33.94199 -118.40097 126 ft 0 kts 173°
2026-05-05 04:07 33.94198 -118.40097 126 ft 0 kts 173°
2026-05-05 04:07 33.94170 -118.40093 126 ft 7 kts 171°
2026-05-05 04:07 33.94146 -118.40088 126 ft 0 kts 169°
2026-05-05 04:08 33.94138 -118.40086 126 ft 2 kts 169°
2026-05-05 04:08 33.94068 -118.40076 125 ft 19 kts 176°
2026-05-05 04:08 33.93910 -118.40037 121 ft 23 kts 136°
2026-05-05 04:08 33.93893 -118.39852 118 ft 26 kts 84°
2026-05-05 04:09 33.93922 -118.39610 115 ft 31 kts 83°
2026-05-05 04:09 33.93946 -118.39356 111 ft 31 kts 84°
2026-05-05 04:09 33.93972 -118.39099 109 ft 30 kts 84°
2026-05-05 04:09 33.93996 -118.38848 108 ft 30 kts 83°
2026-05-05 04:10 33.94022 -118.38602 107 ft 29 kts 83°
2026-05-05 04:10 33.94045 -118.38361 104 ft 29 kts 83°
2026-05-05 04:10 33.94069 -118.38170 103 ft 15 kts 79°
2026-05-05 04:10 33.94076 -118.38103 102 ft 0 kts 85°
2026-05-05 04:11 33.94077 -118.38094 102 ft 2 kts 84°
2026-05-05 04:11 33.94082 -118.38065 102 ft 4 kts 79°
2026-05-05 04:12 33.94082 -118.38060 102 ft 0 kts 89°
2026-05-05 04:12 33.94068 -118.38024 102 ft 7 kts 137°
2026-05-05 04:12 33.94004 -118.38009 102 ft 11 kts 207°
2026-05-05 04:12 33.93982 -118.38052 102 ft 0 kts 259°
2026-05-05 04:15 33.93982 -118.38054 102 ft 1 kts 260°
2026-05-05 04:15 33.93956 -118.38294 104 ft 68 kts 263°
2026-05-05 04:16 33.93869 -118.39149 110 ft 137 kts 263°
2026-05-05 04:16 33.93741 -118.40404 608 ft 152 kts 261°
2026-05-05 04:16 33.93616 -118.41640 1353 ft 155 kts 263°
2026-05-05 04:16 33.93480 -118.42946 2023 ft 164 kts 263°
2026-05-05 04:17 33.93341 -118.44359 2579 ft 179 kts 263°
2026-05-05 04:17 33.93179 -118.45907 3177 ft 193 kts 263°
2026-05-05 04:17 33.93029 -118.47567 3729 ft 210 kts 264°
2026-05-05 04:17 33.92878 -118.49418 4246 ft 232 kts 264°
2026-05-05 04:18 33.92735 -118.51416 4834 ft 251 kts 269°
2026-05-05 04:18 33.93179 -118.53493 5494 ft 269 kts 302°
2026-05-05 04:18 33.94530 -118.55067 6468 ft 275 kts 322°
2026-05-05 04:18 33.96118 -118.56355 7439 ft 278 kts 324°
2026-05-05 04:19 33.97724 -118.57674 8388 ft 282 kts 323°
2026-05-05 04:19 33.99298 -118.59058 9316 ft 285 kts 321°
2026-05-05 04:19 34.00891 -118.60534 10247 ft 289 kts 320°
2026-05-05 04:19 34.02483 -118.62059 10926 ft 301 kts 319°
2026-05-05 04:20 34.04172 -118.63703 11421 ft 319 kts 319°
2026-05-05 04:20 34.05956 -118.65400 11850 ft 338 kts 323°
2026-05-05 04:20 34.08167 -118.66553 12286 ft 360 kts 346°
2026-05-05 04:20 34.10709 -118.66574 13056 ft 370 kts
2026-05-05 04:21 34.13222 -118.65962 13902 ft 373 kts
2026-05-05 04:21 34.15763 -118.65323 14641 ft 378 kts
2026-05-05 04:21 34.18367 -118.64686 15352 ft 383 kts
2026-05-05 04:21 34.21009 -118.64052 16157 ft 384 kts
2026-05-05 04:22 34.23555 -118.63602 17229 ft 374 kts
2026-05-05 04:22 34.26131 -118.63650 18323 ft 363 kts 351°
2026-05-05 04:22 34.28632 -118.64109 19085 ft 363 kts 346°
2026-05-05 04:22 34.31136 -118.64703 19733 ft 368 kts 345°
2026-05-05 04:23 34.33647 -118.65312 20372 ft 372 kts 345°
2026-05-05 04:23 34.36198 -118.65917 20999 ft 377 kts 345°
2026-05-05 04:23 34.38788 -118.66515 21652 ft 381 kts 345°
2026-05-05 04:23 34.41400 -118.67249 22274 ft 382 kts 339°
2026-05-05 04:24 34.43880 -118.68359 22892 ft 382 kts 330°
2026-05-05 04:24 34.46246 -118.69844 23515 ft 382 kts 325°
2026-05-05 04:24 34.48518 -118.71450 24075 ft 384 kts 324°
2026-05-05 04:25 34.53151 -118.74779 25058 ft 393 kts 323°
2026-05-05 04:25 34.55526 -118.76472 25525 ft 397 kts 323°
2026-05-05 04:25 34.57925 -118.78172 25999 ft 401 kts 323°
2026-05-05 04:25 34.60342 -118.79881 26485 ft 403 kts 322°
2026-05-05 04:26 34.62777 -118.81604 26937 ft 407 kts 322°
2026-05-05 04:26 34.65221 -118.83337 27336 ft 411 kts 322°
2026-05-05 04:26 34.67697 -118.85096 27773 ft 414 kts 322°
2026-05-05 04:26 34.70183 -118.86858 28222 ft 416 kts 322°
2026-05-05 04:27 34.72694 -118.88644 28622 ft 419 kts 322°
2026-05-05 04:27 34.75238 -118.90453 29037 ft 422 kts 322°
2026-05-05 04:27 34.77777 -118.92258 29462 ft 424 kts 321°
2026-05-05 04:27 34.80318 -118.94070 29846 ft 427 kts 321°
2026-05-05 04:28 34.82892 -118.95904 30206 ft 429 kts 321°
2026-05-05 04:28 34.85476 -118.97752 30563 ft 431 kts 322°
2026-05-05 04:28 34.88070 -118.99608 30986 ft 431 kts 322°
2026-05-05 04:28 34.90626 -119.01435 31392 ft 430 kts 322°
2026-05-05 04:29 34.93201 -119.03278 31768 ft 429 kts 322°
2026-05-05 04:29 34.95781 -119.05125 32137 ft 430 kts 322°
2026-05-05 04:29 34.98373 -119.06987 32500 ft 430 kts 322°
2026-05-05 04:29 35.00935 -119.08823 32839 ft 431 kts 322°
2026-05-05 04:30 35.03536 -119.10684 33202 ft 431 kts 322°
2026-05-05 04:30 35.06094 -119.12517 33571 ft 430 kts 322°
2026-05-05 04:30 35.08703 -119.14391 33931 ft 430 kts 322°
2026-05-05 04:30 35.11175 -119.16167 34263 ft 430 kts 323°
2026-05-05 04:31 35.13730 -119.18005 34545 ft 431 kts 322°
2026-05-05 04:31 35.16356 -119.19895 34803 ft 433 kts 323°
2026-05-05 04:31 35.18940 -119.21759 35028 ft 435 kts 323°
2026-05-05 04:31 35.21476 -119.23588 35361 ft 436 kts 323°
2026-05-05 04:32 35.24085 -119.25473 35630 ft 437 kts 323°
2026-05-05 04:32 35.26717 -119.27373 35873 ft 439 kts 323°
2026-05-05 04:32 35.29338 -119.29266 35975 ft 441 kts 324°
2026-05-05 04:33 35.34640 -119.33099 35955 ft 442 kts 324°
2026-05-05 04:33 35.39961 -119.36953 35982 ft 442 kts 324°
2026-05-05 04:34 35.45238 -119.40784 36002 ft 442 kts 324°
2026-05-05 04:34 35.50539 -119.44642 35994 ft 442 kts 324°
2026-05-05 04:35 35.55712 -119.48633 35983 ft 439 kts 320°
2026-05-05 04:35 35.58165 -119.50897 36178 ft 437 kts 316°
2026-05-05 04:35 35.60509 -119.53250 35953 ft 436 kts 315°
2026-05-05 04:35 35.62834 -119.55631 36126 ft 436 kts 316°
2026-05-05 04:36 35.65158 -119.58021 36049 ft 435 kts 316°
2026-05-05 04:36 35.69793 -119.62775 36011 ft 435 kts 316°